Weather History for Provo, UT

Change the Weather History Date:

Wednesday, December 4, 2013

  Actual Average Record
Temperature  
Mean Temperature 14 °F -  
Max Temperature 23 °F 38 °F 50 °F (1987)
Min Temperature 6 °F 24 °F 6 °F (2013)
Degree Days  
Heating Degree Days 50    
Moisture  
Dew Point 9 °F    
Average Humidity 73    
Maximum Humidity 92    
Minimum Humidity 53    
Precipitation  
Precipitation 0.00 in - - ()
Sea Level Pressure  
Sea Level Pressure 29.86 in    
Wind  
Wind Speed 16 mph (NW)    
Max Wind Speed 24 mph    
Max Gust Speed 29 mph    
Visibility 11 miles    
Events Snow    
Averages and records for this station are not official NWS values.
T = Trace of Precipitation, MM = Missing Value Source: NWS Daily Summary

Daily Weather History Graph

Daily Weather History Graph

Search for Another Location

Airport:

Trip Planner

Search our weather history database for the weather conditions in past years. The results will help you decide how hot, cold, wet, or windy it might be!

Date:

Astronomy

Dec. 04, 2013 Rise Set
Actual Time 7:33 AM MST 5:00 PM MST
Civil Twilight 7:03 AM MST 5:31 PM MST
Nautical Twilight 6:29 AM MST 6:05 PM MST
Astronomical Twilight 5:56 AM MST 6:37 PM MST
Moon 9:04 AM MST (12/4) 7:15 PM MST (12/4)
Length of Visible Light 10h 28m
Length of Day
9h 27m
Waxing Crescent, 5% of the Moon is Illuminated
Dec 4
Waxing Crescent
Dec 9
First Quarter
Dec 17
Full
Dec 25
Last Quarter
Jan 1
New

Hourly Weather History & Observations

Time (MST) Temp. Windchill Dew Point Humidity Pressure Visibility Wind Dir Wind Speed Gust Speed Precip Events Conditions
12:15 AM 23.0 °F 8.3 °F 19.4 °F 86% 29.67 in 8.0 mi NW 19.6 mph - N/A   Overcast
12:35 AM 23.0 °F 8.3 °F 15.8 °F 74% 29.67 in 10.0 mi NW 19.6 mph - N/A   Overcast
12:55 AM 21.2 °F 4.9 °F 15.8 °F 80% 29.68 in 10.0 mi NW 23.0 mph - N/A   Overcast
1:15 AM 21.2 °F 5.2 °F 14.0 °F 74% 29.67 in 10.0 mi NW 21.9 mph - N/A   Mostly Cloudy
1:35 AM 21.2 °F 5.6 °F 15.8 °F 80% 29.67 in 10.0 mi NW 20.7 mph - N/A   Clear
1:55 AM 21.2 °F 5.6 °F 15.8 °F 80% 29.68 in 10.0 mi NW 20.7 mph - N/A   Mostly Cloudy
2:15 AM 21.2 °F 6.4 °F 14.0 °F 74% 29.68 in 10.0 mi NW 18.4 mph 23.0 mph N/A   Mostly Cloudy
2:35 AM 21.2 °F 6.8 °F 12.2 °F 68% 29.69 in 10.0 mi NW 17.3 mph 23.0 mph N/A   Partly Cloudy
2:55 AM 21.2 °F 6.4 °F 10.4 °F 63% 29.69 in 10.0 mi NW 18.4 mph - N/A   Clear
3:15 AM 19.4 °F 2.1 °F 10.4 °F 68% 29.70 in 10.0 mi NW 24.2 mph - N/A   Scattered Clouds
3:35 AM 19.4 °F 2.5 °F 10.4 °F 68% 29.72 in 10.0 mi NW 23.0 mph - N/A   Mostly Cloudy
3:55 AM 19.4 °F 4.1 °F 10.4 °F 68% 29.72 in 10.0 mi NW 18.4 mph 23.0 mph N/A   Mostly Cloudy
4:15 AM 19.4 °F 2.8 °F 8.6 °F 63% 29.71 in 10.0 mi NW 21.9 mph - N/A   Mostly Cloudy
4:35 AM 19.4 °F 4.1 °F 8.6 °F 63% 29.71 in 10.0 mi NNW 18.4 mph 24.2 mph N/A   Scattered Clouds
4:55 AM 19.4 °F 2.1 °F 6.8 °F 58% 29.72 in 9.0 mi NW 24.2 mph - N/A   Mostly Cloudy
5:15 AM 19.4 °F 2.5 °F 6.8 °F 58% 29.73 in 10.0 mi NW 23.0 mph 28.8 mph N/A   Overcast
5:35 AM 17.6 °F 1.3 °F 6.8 °F 63% 29.74 in 10.0 mi NW 19.6 mph 28.8 mph N/A   Overcast
5:55 AM 17.6 °F 0.9 °F 6.8 °F 63% 29.75 in 10.0 mi NW 20.7 mph 26.5 mph N/A   Scattered Clouds
6:15 AM 15.8 °F -0.6 °F 6.8 °F 68% 29.76 in 10.0 mi NW 18.4 mph 25.3 mph N/A   Partly Cloudy
6:35 AM 15.8 °F -0.6 °F 6.8 °F 68% 29.77 in 10.0 mi NW 18.4 mph - N/A   Clear
6:55 AM 15.8 °F -1.5 °F 6.8 °F 68% 29.79 in 15.0 mi WNW 20.7 mph - N/A   Partly Cloudy
7:55 AM 12.2 °F 1.7 °F - N/A% 29.82 in 15.0 mi North 6.9 mph - N/A   Scattered Clouds
8:50 AM 14.0 °F -2.0 °F 8.6 °F 79% 29.84 in 15.0 mi WNW 16.1 mph - N/A   Scattered Clouds
9:50 AM 15.8 °F 2.7 °F 8.6 °F 73% 29.90 in 15.0 mi NW 11.5 mph - N/A   Scattered Clouds
10:55 AM 15.8 °F 6.1 °F 8.6 °F 73% 29.92 in 15.0 mi North 6.9 mph - N/A   Partly Cloudy
11:50 AM 17.6 °F 2.2 °F 8.6 °F 68% 29.92 in 15.0 mi WNW 17.3 mph - N/A   Partly Cloudy
12:50 PM 17.6 °F 2.2 °F 8.6 °F 68% 29.93 in 15.0 mi WNW 17.3 mph - N/A   Partly Cloudy
1:48 PM 19.4 °F 6.6 °F 8.6 °F 63% 29.94 in 15.0 mi West 12.7 mph - N/A   Scattered Clouds
2:47 PM 19.4 °F 8.6 °F 8.6 °F 63% 29.96 in 15.0 mi WSW 9.2 mph - N/A   Scattered Clouds
3:56 PM 19.4 °F 9.5 °F 6.8 °F 58% 29.92 in 15.0 mi West 8.1 mph - N/A   Mostly Cloudy
4:55 PM 17.6 °F 9.3 °F 3.2 °F 53% 30.00 in 10.0 mi WNW 5.8 mph - N/A   Mostly Cloudy
5:47 PM 15.8 °F 10.2 °F 6.8 °F 68% 30.01 in 10.0 mi NE 3.5 mph - N/A   Mostly Cloudy
6:54 PM 12.2 °F 6.1 °F 8.6 °F 85% 30.02 in 10.0 mi NNE 3.5 mph - N/A   Partly Cloudy
7:57 PM 12.2 °F 4.3 °F 8.6 °F 85% 30.03 in 10.0 mi East 4.6 mph - N/A   Light Ice Crystals
8:47 PM 12.2 °F - 10.4 °F 92% 30.04 in 6.0 mi Calm Calm - N/A Snow Light Snow
9:15 PM 10.4 °F - 8.6 °F 92% 30.05 in 10.0 mi Calm Calm - N/A   Clear
9:35 PM 10.4 °F - 8.6 °F 92% 30.05 in 10.0 mi Calm Calm - N/A   Clear
9:55 PM 12.2 °F - 8.6 °F 85% 30.06 in 10.0 mi Calm Calm - N/A   Clear
10:15 PM 8.6 °F 0.1 °F 5.0 °F 85% 30.06 in 10.0 mi South 4.6 mph - N/A   Clear
10:35 PM 6.8 °F -3.5 °F 3.2 °F 85% 30.07 in 10.0 mi South 5.8 mph - N/A   Clear
10:55 PM 6.8 °F -5.9 °F 1.4 °F 79% 30.07 in 10.0 mi SSE 8.1 mph - N/A   Clear
11:15 PM 6.8 °F -7.8 °F 5.0 °F 92% 30.07 in 10.0 mi SE 10.4 mph - N/A   Clear
11:35 PM 6.8 °F -0.1 °F 1.4 °F 79% 30.07 in 10.0 mi East 3.5 mph - N/A   Clear
11:55 PM 6.8 °F -2.0 °F 3.2 °F 85% 30.07 in 10.0 mi SE 4.6 mph - N/A   Partly Cloudy